Location: *
(52.3622°S, 170.1449°W)
Time: 13:05:53
(UTC+00:00)

Daily predictions for brighter satellites

Satellite Brightness Start Highest point End
(mag) Time Altitude Azimuth Time Altitude Azimuth Time Altitude Azimuth
Cosmos 1400 Rocket 2.9 12:02:15 10° SSW 12:06:20 62° W 12:08:17 28° N
MSX 3.9 12:02:07 17° NNE 12:06:46 84° ESE 12:12:37 10° SSW
GP-B 3.9 12:03:07 10° S 12:07:22 41° W 12:09:46 22° NW
Cosmos 158 Rocket 3.8 12:03:15 10° SSW 12:08:14 89° SE 12:12:09 16° NNE
Cosmos 1486 Rocket 4.4 12:10:36 22° N 12:13:54 58° ENE 12:19:12 10° SSE
Cosmos 2360 Rocket 4.3 12:09:28 10° SSW 12:14:20 28° SE 12:19:11 10° E
Cosmos 1408 2.4 12:11:31 10° S 12:14:52 74° ESE 12:16:33 27° NNE
Meteor 2-5 Rocket 4.0 12:10:34 10° SSW 12:16:17 57° W 12:19:55 22° NNW
SAR-Lupe-4 4.0 12:16:32 29° NNW 12:18:00 47° W 12:21:34 10° SSW
CZ-2C R/B 4.5 12:15:06 10° NE 12:20:21 42° ESE 12:25:49 10° S
Cosmos 1953 3.7 12:22:03 14° NNE 12:24:53 32° E 12:28:28 10° SSE
USA 229 DEB 4.4 12:20:00 10° SW 12:26:55 55° SSE 12:33:10 10° ENE
USA 229 4.4 12:20:03 10° SW 12:26:58 55° SSE 12:33:13 10° ENE
Cosmos 1975 Rocket 4.0 12:23:45 10° S 12:28:00 44° ESE 12:32:13 10° NNE
Cosmos 2322 Rocket 3.6 12:25:24 10° SSW 12:30:44 39° SE 12:36:01 10° ENE
Cosmos 1867 3.5 12:25:53 10° SW 12:31:17 70° NW 12:36:39 10° NNE
Cosmos 1315 Rocket 3.3 12:27:52 10° S 12:31:53 60° ESE 12:35:26 13° NNE
Cosmos 1697 Rocket 3.7 12:27:13 10° SW 12:32:04 29° WNW 12:34:49 20° NNW
Cosmos 2333 Rocket 4.2 12:30:16 10° SSW 12:35:19 31° SE 12:40:20 10° ENE
Cosmos 1378 Rocket 4.3 12:31:41 10° SSW 12:35:46 37° W 12:38:03 21° NW
Cosmos 1908 Rocket 3.6 12:35:50 22° N 12:38:45 88° ENE 12:43:19 10° SSE
Genesis I 2.9 12:35:05 10° SW 12:38:50 77° NW 12:42:32 10° NE
NOSS 3-1 (A) 3.4 12:32:44 10° SW 12:39:41 84° NW 12:45:15 10° NE
Cosmos 1703 3.8 12:36:47 10° SSW 12:40:30 43° W 12:42:28 23° NNW
NOSS 3-1 (C) 3.6 12:34:34 10° SW 12:40:59 50° WNW 12:46:03 11° NNE
Cosmos 1733 Rocket 4.1 12:39:19 17° NW 12:42:06 34° WSW 12:46:11 10° S
Cosmos 1633 2.0 12:40:45 10° S 12:43:51 88° W 12:45:38 23° N
ATLAS 5 CENTAUR R/B 4.4 12:37:46 10° WSW 12:43:52 31° S 12:49:05 10° ESE
ADEOS II 2.1 12:39:42 16° N 12:43:57 70° WNW 12:49:18 10° SSW
CZ-2C R/B 4.3 12:40:24 10° ENE 12:44:57 32° ESE 12:49:26 10° S
USA 215 4.4 12:42:47 18° NNW 12:45:01 21° NW 12:49:51 10° WSW
Cosmos 2098 Rocket 2.0 12:43:49 28° NNW 12:45:14 85° WSW 12:48:23 10° S
Thor Agena Rocket 4.2 12:41:32 10° NE 12:46:33 56° ESE 12:51:42 10° S
Cosmos 783 Rocket 4.5 12:42:58 10° SSW 12:48:21 80° WNW 12:53:38 10° NNE
Cosmos 1503 Rocket 4.1 12:47:51 19° NNW 12:51:38 72° ENE 12:56:52 10° SSE
SL-16 R/B 2.5 12:46:45 10° SSW 12:52:30 71° SE 12:58:12 10° NE
Resurs 1-4 Rocket 2.8 12:51:34 19° NNW 12:54:57 38° W 12:59:55 10° SSW
COSMOS 2406 3.3 12:53:14 18° NNW 12:57:38 86° ENE 13:03:30 10° SSE
ATLAS CENTAUR R/B 1.4 12:53:18 10° SW 12:57:49 77° NW 13:02:14 10° NE
Lacrosse 5 rocket 0.9 12:54:12 10° WSW 12:57:50 65° NNW 13:01:31 10° NE
IDEFIX/ARIANE 42P 3.4 12:56:11 18° NNW 12:59:33 36° W 13:04:28 10° SSW
Cosmos 1980 Rocket 3.0 12:55:53 10° SW 13:00:58 34° WNW 13:04:48 16° NNW
Cosmos 2369 4.3 12:55:50 10° SW 13:01:05 39° WNW 13:05:23 15° N
Cosmos 1892 2.5 12:57:56 10° SSW 13:01:40 86° W 13:04:43 14° N
Cosmos 1354 Rocket 4.2 12:58:17 17° NNW 13:02:23 70° ENE 13:07:40 10° SSE
CZ-2D R/B 3.0 13:01:05 17° NNW 13:04:42 35° W 13:09:47 10° SSW
USA 281 3.9 12:58:19 10° NE 13:04:46 59° SE 13:11:16 10° SSW
CZ-4 R/B 3.8 13:00:08 10° NNE 13:04:51 89° ESE 13:09:37 10° SSW
ALOS 2.4 13:02:06 10° NNE 13:06:48 83° ESE 13:11:34 10° SSW
BREEZE-M DEB (TANK) 2.5 13:09:02 10° W 13:13:34 54° N 13:15:57 10° ENE
Cosmos 1825 2.0 13:11:15 10° SSW 13:14:53 81° W 13:18:15 12° N
Cosmos 1300 Rocket 3.6 13:12:28 14° N 13:16:17 85° E 13:20:50 10° SSE
Envisat 4.0 13:11:26 10° NE 13:16:21 49° ESE 13:21:20 10° S
ALOS 2 4.4 13:13:36 10° S 13:17:02 22° WSW 13:20:26 10° WNW
Geosat 4.2 13:12:24 10° NE 13:17:27 81° ESE 13:22:34 10° SSW
Meteor 1-4 Rocket 2.9 13:15:14 10° S 13:18:29 56° ESE 13:21:39 10° NNE
Lacrosse 4 Rocket 4.3 13:18:00 10° SW 13:19:16 11° SSW 13:20:34 10° S
Cosmos 1833 Rocket 4.1 13:16:27 10° WNW 13:21:27 31° SW 13:26:30 10° SSE
ATLAS 3B R/B 3.0 13:16:26 10° SW 13:22:13 39° WNW 13:27:57 10° N
Cosmos 1727 Rocket 4.3 13:16:49 10° N 13:22:59 70° E 13:29:17 10° SSE
Cosmos 1340 3.8 13:21:18 14° NW 13:23:47 30° WSW 13:27:02 10° S
Cosmos 1300 3.8 13:21:54 15° NW 13:24:29 31° WSW 13:27:53 10° S
Cosmos 1025 Rocket 3.8 13:20:28 10° SSW 13:24:36 38° W 13:28:01 14° NNW
FENGYUN 3A 4.0 13:20:37 11° N 13:25:41 50° W 13:31:02 10° SSW
USA 308 1.5 13:25:27 18° WNW 13:27:02 67° NNE 13:29:50 10° ESE
Cosmos 1455 2.2 13:26:21 12° N 13:29:46 74° E 13:33:30 10° SSE
IRS-1D 3.8 13:25:37 10° NNE 13:30:55 79° ESE 13:36:22 10° SSW
Helios 1A Rocket 4.1 13:27:42 10° S 13:31:15 30° WSW 13:34:27 12° WNW
Cosmos 1605 Rocket 4.4 13:26:42 10° SSW 13:32:34 47° W 13:38:18 10° NNW
SJ 16-02 3.5 13:29:35 10° W 13:32:38 18° SW 13:35:41 10° S
Meteor 2-10 Rocket 4.5 13:27:53 13° NW 13:32:46 43° WSW 13:38:23 10° S
YAOGAN 6 4.0 13:30:40 10° NE 13:33:48 36° ESE 13:36:59 10° S
USA 307 3.5 13:34:20 12° N 13:35:22 16° NE 13:36:51 10° ENE
Cosmos 2278 4.1 13:32:14 10° SW 13:37:39 44° WNW 13:43:02 10° N
USA 305 3.5 13:37:58 11° NNE 13:38:47 13° NE 13:39:47 10° ENE
BREEZE M DEB (TANK) 2.1 13:38:00 10° WNW 13:40:02 47° N 13:43:09 10° ENE
Cosmos 371 Rocket 3.5 13:36:53 11° NNW 13:41:37 73° ENE 13:46:34 10° SSE
Cosmos 2082 Rocket 2.8 13:37:14 10° NW 13:42:43 50° SW 13:48:21 10° SSE
Cosmos 2173 Rocket 4.1 13:36:30 10° S 13:42:45 87° E 13:48:53 10° N
Cosmos 2237 4.4 13:40:03 10° SW 13:45:39 55° WNW 13:51:15 10° N
Cosmos 1782 Rocket 4.4 13:45:23 11° NW 13:49:22 38° WSW 13:53:39 10° S
Cosmos 1802 Rocket 4.3 13:44:21 10° S 13:50:54 78° E 13:57:15 10° NNE
Cosmos 2100 Rocket 4.0 13:45:42 10° SSW 13:51:57 80° W 13:58:09 10° N
ATLAS 2AS CENTAUR R/B 3.5 13:47:47 10° WNW 13:54:19 50° SSW 14:01:15 10° SE
Cosmos 44 Rocket 3.2 13:52:47 10° NW 13:57:28 84° SW 14:02:09 10° SE
Meteor 1-11 4.4 13:52:26 10° SSW 13:58:16 65° W 14:03:58 10° N
Okean 2 Rocket 3.4 13:54:17 10° N 13:58:45 71° E 14:03:15 10° SSE
Cosmos 2360 Rocket 2.2 13:53:15 10° SSW 13:58:59 81° WNW 14:04:41 10° NNE
Cosmos 1242 Rocket 3.7 13:56:38 10° S 13:59:49 42° ESE 14:02:59 10° NE
CZ-2C R/B 3.8 13:54:52 10° NNW 14:00:10 42° W 14:05:42 10° SSW
COBE Rocket 3.8 13:55:38 10° N 14:00:19 75° WNW 14:05:05 10° SSW
Cosmos 1953 3.6 13:57:27 10° NW 14:00:54 28° WSW 14:04:25 10° S
In-Cosmos 22 Rocket 4.5 13:57:09 10° SSW 14:02:57 58° W 14:08:38 10° N
Cosmos 1538 Rocket 4.4 13:58:11 10° SSW 14:03:26 50° WNW 14:08:37 10° N
USA 306 2.8 14:00:07 10° NW 14:03:31 53° NNE 14:07:12 10° ESE
Cosmos 1975 Rocket 4.4 14:02:02 10° SW 14:05:35 24° W 14:09:06 10° NW
Cosmos 2219 Rocket 2.7 14:00:33 10° SSW 14:06:12 66° SE 14:11:48 10° NE
ISS -2.6 14:03:58 10° NW 14:07:02 31° NNE 14:10:06 10° E
Cosmos 921 Rocket 3.8 14:04:15 10° SSW 14:08:28 56° ESE 14:12:37 10° NE
Cosmos 1725 Rocket 4.2 14:04:23 10° S 14:10:51 87° ESE 14:17:14 10° N
MOZ.5/SAFIR/RUBIN 5/SL-8 3.9 14:07:55 10° SSE 14:12:42 73° WSW 14:17:22 10° NNW
Cosmos 2322 Rocket 2.4 14:09:29 10° SW 14:14:57 50° WNW 14:20:21 10° N
NOAA 11 4.3 14:09:37 10° N 14:15:09 77° WNW 14:20:47 10° SSW
USA 229 DEB 3.7 14:11:21 10° SW 14:17:51 51° WNW 14:23:49 10° NNE
USA 229 3.7 14:11:24 10° SW 14:17:56 51° NW 14:23:54 10° NNE
